Location: Kawakawa
(35.3830°S, 174.0670°E)
Time: 20:37:04
(UTC+13:00)

A-11 Canister half - Pass Details

Date: 12 December 2019
Orbit: 1525 x 1684 km, 47.3° (Epoch: 21 January)

Event Time Altitude Azimuth Distance (km) Brightness Sun altitude
Rises 00:54:15 0° 236° (WSW) 4,707 12.1 -31.4°
Reaches altitude 10° 00:57:18 10° 234° (SW) 3,733 11.5 -31.4°
Maximum altitude 01:06:47 79° 147° (SSE) 1,605 9.0 -31.6°
Enters shadow 01:11:32 35° 66° (ENE) 2,351 9.7 -31.6°
